Content
SEND FEEDBACK

Daily
Averages
Monthly
Summary
United States of America

MULLAN, IDAHO


Home > North America > United States > Idaho
Elevation: 3504 feet     Latitude: 47 28N     Longitude: 115 48W

WEATHER
 
SELECT A DAY
Number of Records: 295,959;   Date Range: 7/1/96 - 12/18/14
 
SHARE

PRINT THIS DATA

[ ← Previous Day ]
WEATHER ALMANAC - JANUARY 31, 2013
[ Next Day → ]
[ °C ]   °F
Weather ElementAverageHighLow
Temperature30.5 °F33.1 °F (2:53 pm)30 °F (1:53 am)
Dewpoint26.8 °F28.4 °F (2:33 pm)26.1 °F (2:53 am)
Humidity85.8 %88 % (1:53 am)82 % (2:53 pm)
Barometer30.07 in30.15 in (10:07 am)29.98 in (10:53 pm)
Wind Speed4.5 mph8.1 mph (12:36 am)
Wind Gust21.9 mph (2:25 am)
Weather ElementAverage
Visibility0.4 mi
Wind DirectionNNE (29.4 °)

Weather ElementTotal
Precipitation---
Heating Degree Days33.5 (Base 65)
Averaged from 51 records on January 31, 2013
WEATHER CONDITIONS BREAKOUT
WIND DIRECTION BREAKOUT
WEATHER BY HOUR - JANUARY 31, 2013
[ °C ]   °F
Local TimeTemperatureDewpointHumidityBarometerVisibilityWind DirectionWind SpeedGust SpeedPrecipitationEventsConditions
12:22 AM30.2 °F26.6 °F86 %30.10 in1.0 miVariable5.8 mphMist
12:36 AM30.2 °F26.6 °F86 %30.10 in0.5 miWNW (300°)8.1 mphFogLight Freezing Fog
12:53 AM30.9 °F27.0 °F85 %30.05 in0.2 miVariable5.8 mphFogLight Freezing Fog
1:29 AM30.2 °F26.6 °F86 %30.11 in0.5 miVariable6.9 mphFogLight Freezing Fog
1:44 AM30.2 °F26.6 °F86 %30.12 in0.2 miNW (310°)8.1 mphFogLight Freezing Fog
1:53 AM30.0 °F27.0 °F88 %30.06 in0.2 miVariable4.6 mph20.7 mphFogLight Freezing Fog
2:16 AM30.2 °F26.6 °F86 %30.12 in0.5 miVariable6.9 mph19.6 mphFogLight Freezing Fog
2:25 AM30.2 °F26.6 °F86 %30.12 in0.2 miNNW (330°)8.1 mph21.9 mphFogLight Freezing Fog
2:53 AM30.0 °F26.1 °F85 %30.06 in0.2 miVariable6.9 mph16.1 mphFogLight Freezing Fog
3:43 AM30.2 °F26.6 °F86 %30.12 in0.5 miVariable4.6 mphFogLight Freezing Fog
3:53 AM30.9 °F27.0 °F85 %30.06 in0.2 miVariable3.5 mphFogLight Freezing Fog
4:05 AM30.2 °F26.6 °F86 %30.12 in0.5 miVariable3.5 mphFogLight Freezing Fog
4:34 AM30.2 °F26.6 °F86 %30.12 in0.2 miVariable5.8 mphFogLight Freezing Fog
4:44 AM30.2 °F26.6 °F86 %30.12 in0.2 miVariable4.6 mphFogLight Freezing Fog
4:53 AM30.0 °F26.1 °F85 %30.06 in0.2 miWNW (290°)4.6 mphFogLight Freezing Fog
5:25 AM30.2 °F26.6 °F86 %30.12 in0.5 miVariable3.5 mphFogLight Freezing Fog
5:53 AM30.0 °F26.1 °F85 %30.06 in0.2 miVariable4.6 mphFogLight Freezing Fog
6:53 AM30.0 °F26.1 °F85 %30.06 in0.2 miWest (270°)4.6 mphFogLight Freezing Fog
7:53 AM30.9 °F27.0 °F85 %30.06 in0.2 miCalm0.00 inFog-SnowLight Snow
8:53 AM30.9 °F27.0 °F85 %30.07 in0.2 miVariable3.5 mph0.00 inFogLight Freezing Fog
9:06 AM30.2 °F26.6 °F86 %30.13 in0.2 miVariable3.5 mph0.00 inFog-SnowLight Snow
9:38 AM30.2 °F26.6 °F86 %30.14 in0.2 miCalm0.00 inFog-SnowLight Snow
9:53 AM30.9 °F27.0 °F85 %30.08 in0.2 miCalm0.00 inFog-SnowLight Snow
10:07 AM30.2 °F26.6 °F86 %30.15 in0.2 miVariable3.5 mph0.00 inFog-SnowSnow
10:24 AM30.2 °F26.6 °F86 %30.14 in0.5 miVariable4.6 mph0.00 inFog-SnowSnow
10:53 AM30.9 °F27.0 °F85 %30.07 in0.2 miVariable3.5 mph0.00 inFog-SnowLight Snow
11:53 AM32.0 °F28.0 °F85 %30.06 in0.2 miVariable3.5 mph0.00 inFog-SnowLight Snow
12:53 PM32.0 °F28.0 °F85 %30.05 in0.2 miVariable3.5 mph0.00 inFog-SnowLight Snow
1:53 PM32.0 °F28.0 °F85 %30.05 in0.2 miVariable4.6 mph0.00 inFog-SnowLight Snow
2:33 PM32.0 °F28.4 °F87 %30.11 in0.2 miVariable4.6 mph0.00 inFog-SnowLight Snow
2:42 PM32.0 °F28.4 °F87 %30.11 in0.2 miCalm0.00 inFog-SnowLight Snow
2:53 PM33.1 °F28.0 °F82 %30.04 in0.2 miVariable3.5 mph0.00 inSnowHeavy Snow
4:53 PM30.9 °F27.0 °F85 %30.03 in0.5 miVariable3.5 mph0.00 inFogLight Freezing Fog
5:00 PM30.2 °F26.6 °F86 %30.09 in1.0 miVariable6.9 mphOvercast
5:20 PM30.2 °F26.6 °F86 %30.09 in0.5 miVariable3.5 mphFogLight Freezing Fog
5:48 PM30.2 °F26.6 °F86 %30.09 in0.2 miVariable5.8 mph0.00 inFog-SnowLight Snow
5:53 PM30.9 °F27.0 °F85 %30.02 in0.2 miVariable4.6 mph0.00 inFog-SnowLight Snow
6:11 PM30.2 °F26.6 °F86 %30.09 in0.2 miVariable4.6 mph0.00 inFog-SnowSnow
6:26 PM30.2 °F26.6 °F86 %30.09 in0.2 miVariable5.8 mph0.00 inFog-SnowSnow
6:53 PM30.9 °F27.0 °F85 %30.03 in0.2 miCalm0.00 inFog-SnowLight Snow
7:11 PM30.2 °F26.6 °F86 %30.09 in0.5 miCalm0.00 inFog-SnowLight Snow
7:53 PM30.0 °F27.0 °F88 %30.01 in0.5 miVariable5.8 mph0.00 inFog-SnowLight Snow
8:53 PM30.0 °F27.0 °F88 %30.00 in0.5 miVariable4.6 mph0.00 inFog-SnowLight Snow
9:53 PM30.0 °F27.0 °F88 %29.99 in0.5 miVariable5.8 mph0.00 inFogLight Freezing Fog
10:01 PM30.2 °F26.6 °F86 %30.05 in0.2 miVariable5.8 mph0.00 inFog-SnowLight Snow
10:53 PM30.9 °F27.0 °F85 %29.98 in0.2 miVariable5.8 mph0.00 inFog-SnowLight Snow
11:27 PM30.2 °F26.6 °F86 %30.04 in0.5 miVariable4.6 mph0.00 inFogLight Freezing Fog
11:37 PM30.2 °F26.6 °F86 %30.04 in1.8 miVariable5.8 mph0.00 inSnowLight Snow
11:40 PM30.2 °F26.6 °F86 %30.04 in3.0 miVariable6.9 mph0.00 inSnowLight Snow
11:48 PM30.2 °F26.6 °F86 %30.04 in1.8 miVariable4.6 mph0.00 inSnowLight Snow
11:53 PM30.0 °F26.1 °F85 %29.98 in0.8 miVariable5.8 mph0.00 inSnowLight Snow
Hourly data recorded from KMLP, located miles away from Mullan, Idaho







STORIES FROM OUR PARTNERS